Home > Weather > Montego Bay > Past weeks

Flag for Jamaica Past Weather in Montego Bay, Jamaica — Yesterday and Last 2 Weeks

Now
90 °F

Passing clouds.


Feels Like: 103 °F
Forecast: 78 / 89 °F
Wind: 16 mph from Northeast

Location: Montego Bay / Sangster

Current Time: Jul 25, 2016 at 1:01:07 PM

Latest Report: Jul 25, 2016 at 12:00 PM


Visibility: N/A

Pressure: 29.95 "Hg

Humidity: 67%

Dew Point: 77 °F

Location of Montego BayLocation

Past Weather in Montego Bay — Graph

°F

Montego Bay Temperature Yesterday

Maximum temperature yesterday: 91 °F (at 3:00 PM)
Minimum temperature yesterday: 81 °F (at 1:00 AM)
Average temperature yesterday: 85 °F

High & Low Weather Summary for the Past Weeks

 TemperatureHumidityPressure
High91 °F (Jul 10, 1:00 PM)94% (Jul 22, 7:00 PM)30.04 "Hg (Jul 22, 7:00 PM)
Low77 °F (Jul 14, 4:00 AM)59% (Jul 10, 1:00 PM)29.89 "Hg (Jul 19, 3:00 PM)
Average84 °F75%29.96 "Hg
* Reported Jul 10 12:00 PM — Jul 25 12:00 PM, Montego Bay, Weather by CustomWeather, © 2016

Note: Actual official high and low records may vary slightly from our data, if they occured in-between our weather recording intervals... More about our weather records

Advertising

Montego Bay Weather History for the Previous 24 Hours

Scroll right to see more
 ConditionsComfort  
Time TempWeatherWind HumidityBarometerVisibility
12:00 PM
Mon, Jul 25
90 °FPassing clouds.16 mph67%29.95 "HgN/A
11:00 AM86 °FPassing clouds.15 mph75%29.95 "HgN/A
10:00 AM88 °FPassing clouds.13 mph70%29.95 "HgN/A
9:00 AM86 °FPassing clouds.12 mph70%29.98 "HgN/A
8:00 AM86 °FPassing clouds.9 mph70%29.95 "HgN/A
7:00 AM84 °FPassing clouds.1 mph70%29.95 "HgN/A
6:00 AM81 °FPassing clouds.2 mph79%29.95 "HgN/A
5:00 AM81 °FPassing clouds.3 mph79%29.92 "HgN/A
4:00 AM81 °FPassing clouds.6 mph84%29.92 "HgN/A
3:00 AM81 °FThundershowers. Passing clouds.3 mph84%29.92 "HgN/A
2:00 AM81 °FPassing clouds.3 mph84%29.92 "HgN/A
1:00 AM81 °FPassing clouds.2 mph84%29.95 "HgN/A
12:00 AM81 °FPassing clouds.1 mph89%29.95 "HgN/A
10:00 PM
Sun, Jul 24
82 °FPassing clouds.2 mph79%29.98 "HgN/A
9:00 PM82 °FPassing clouds.3 mph74%29.95 "HgN/A
8:00 PM82 °FPassing clouds.2 mph79%29.95 "HgN/A
7:00 PM84 °FPassing clouds.5 mph79%29.92 "HgN/A
6:00 PM86 °FPassing clouds.13 mph75%29.92 "HgN/A
5:00 PM88 °FPassing clouds.14 mph70%29.92 "HgN/A
4:00 PM90 °FPassing clouds.17 mph67%29.89 "HgN/A
3:00 PM91 °FPassing clouds.14 mph59%29.89 "HgN/A
2:00 PM90 °FPassing clouds.14 mph71%29.92 "HgN/A
1:00 PM90 °FPassing clouds.10 mph71%29.95 "HgN/A
Weather by CustomWeather, © 2016

See weather overviewHow to use our weather pages